ZHONGXING-19

Last updated on Mon Oct 14 2024 00:02:41 GMT+0000 (Coordinated Universal Time)

1 54230U 22148A 24287.51054866 -.00000081 00000+0 00000+0 0 9997 2 54230 0.0146 226.2769 0009303 8.0448 135.4746 1.00270955 7242
UTC large
Height (km)
Speed (km/s)
/
Latitude / Longitude
Inclination (degrees)
Orbital Period (minutes)
Azimuth
Elevation
Range (km)
Doppler Factor

Next 0 passes for location: London (51.5072 / 0.1276)

Sorry there are no passes over London.